Theta_e
331 331 330 335 339 340 340 340 339 339 339 339 340 341 339 330 322 318 320 322 326 320 322 322 317 318 324 327 328 328 324 320 318 317 318 324 326 326 327 329 330 331 331
328 332 329 330 336 338 339 339 337 334 333 334 340 340 338 325 319 316 316 317 317 318 321 318 318 320 326 330 331 330 327 324 320 319 317 319 324 328 330 331 332 331 330
328 331 330 327 330 333 334 336 334 332 330 330 335 338 328 320 317 315 315 315 318 318 319 318 321 326 330 331 331 330 330 328 323 319 318 319 319 324 329 330 335 334 331
328 330 331 327 328 330 329 329 328 325 320 323 326 323 318 317 316 315 315 316 318 318 318 320 326 329 332 332 332 331 331 328 323 320 320 319 319 318 321 328 330 333 333
329 330 331 326 327 329 327 325 322 316 316 316 317 317 317 316 315 315 314 317 317 317 318 323 327 329 331 332 333 331 331 331 330 323 320 320 320 319 318 319 326 330 331
331 331 329 325 327 327 325 321 317 316 316 316 316 316 316 316 315 315 315 316 317 317 319 324 326 326 329 330 333 332 331 331 332 331 324 321 321 318 317 318 318 322 327
331 332 328 324 327 326 322 318 318 317 316 316 316 316 316 316 315 315 315 316 316 317 318 322 323 324 327 329 332 332 330 332 332 333 330 324 321 320 317 315 317 319 319
332 333 328 324 326 323 321 320 319 317 316 316 316 316 316 316 316 315 315 316 316 317 318 319 320 322 326 329 331 332 331 331 331 334 331 328 321 321 318 317 316 314 315
332 333 329 325 324 323 323 322 321 318 317 316 316 316 316 316 316 315 315 315 316 317 317 318 318 320 323 327 330 330 329 330 331 333 331 327 322 323 319 316 315 316 315
333 333 330 326 325 325 325 325 323 321 318 317 316 316 316 316 316 316 316 316 316 316 316 317 317 317 318 321 326 329 328 329 332 331 330 324 320 321 325 322 316 315 315
334 334 332 328 327 328 329 328 326 323 321 318 317 317 317 316 316 316 316 316 316 316 316 316 316 316 317 317 318 322 328 329 331 330 328 325 318 319 319 320 318 317 316
333 334 333 331 329 329 330 331 330 327 325 320 318 317 317 317 316 316 316 316 316 316 316 316 316 316 316 317 317 318 324 328 330 329 329 326 318 318 319 321 322 322 323
330 333 333 333 331 331 331 332 332 330 326 323 320 318 317 317 317 316 316 316 316 316 316 316 316 316 317 317 319 320 326 328 329 329 329 325 321 324 326 326 325 326 327
328 331 334 334 333 332 332 333 333 332 328 324 321 319 318 317 317 317 316 316 316 316 316 316 316 316 315 317 324 326 325 323 327 329 329 330 329 329 330 329 328 329 329
332 330 332 334 334 334 334 334 334 333 332 326 322 320 319 317 317 317 317 317 316 316 317 317 317 318 318 318 325 327 329 326 327 328 330 331 331 330 330 330 330 330 330
332 331 331 333 334 335 335 335 335 334 334 331 323 321 319 318 317 317 317 317 317 317 317 318 319 322 328 330 331 331 331 326 327 328 329 331 331 330 329 329 329 329 330
334 334 330 330 334 334 335 335 336 335 335 333 328 322 320 319 318 317 317 317 318 318 318 319 321 327 333 332 333 333 332 332 331 331 330 331 331 329 328 328 329 330 330
337 332 334 332 332 334 335 335 335 336 336 335 333 326 321 320 320 319 318 318 318 318 319 320 324 330 334 334 333 333 333 333 331 330 330 330 329 329 329 330 329 329 329
339 336 334 333 332 333 335 335 336 335 336 335 334 332 323 321 321 321 320 319 318 318 319 320 325 332 334 333 333 333 333 333 332 331 330 330 330 330 331 333 332 331 330
341 338 335 333 333 333 335 336 336 336 335 335 335 334 329 322 322 322 322 322 321 320 321 321 321 333 334 334 333 334 333 332 332 333 334 333 332 331 334 333 333 332 331
341 340 337 334 333 332 333 334 334 332 331 332 333 335 334 324 322 323 324 324 324 323 323 325 321 330 335 335 335 335 334 334 332 333 335 333 332 333 333 334 334 332 332
341 340 339 337 335 334 332 330 329 327 327 327 329 334 333 330 323 323 324 325 326 326 327 327 326 329 334 335 335 336 335 334 335 333 333 333 333 333 332 333 333 333 332
338 341 340 339 338 337 334 330 331 329 328 328 328 331 332 332 327 323 324 325 326 327 327 328 329 332 334 334 334 335 335 335 334 333 334 334 334 333 332 332 332 332 330
336 339 341 340 339 338 337 335 333 329 325 322 322 325 330 331 328 325 324 325 326 327 328 329 329 330 333 334 335 335 335 333 333 328 332 332 333 332 332 331 331 330 329
333 334 341 341 340 339 339 338 336 333 330 328 324 323 323 326 327 325 324 324 325 327 328 329 330 331 331 332 334 335 336 335 333 332 326 328 330 330 330 330 328 327 322
329 334 339 341 342 340 339 338 337 336 336 334 332 329 325 322 323 324 324 324 324 326 327 328 330 330 331 332 333 334 334 334 334 333 330 327 326 326 327 326 324 321 320
Wind_Speed
34 32 32 32 31 29 26 24 23 23 23 22 21 19 17 15 14 16 18 18 17 15 17 18 19 20 21 22 23 23 23 22 22 22 21 21 20 19 19 17 17 17 16
36 35 33 32 32 30 27 25 23 22 22 20 22 19 16 14 15 17 18 17 17 17 18 19 20 20 20 20 21 22 23 23 22 21 21 22 21 19 18 18 17 17 15
36 36 34 32 32 30 27 25 24 22 20 19 21 20 16 16 17 18 18 17 18 18 19 20 19 19 17 18 19 21 21 22 22 21 21 21 21 19 18 17 18 17 16
38 37 35 33 32 31 28 26 24 23 21 21 20 19 19 19 19 18 18 18 18 18 19 19 19 18 19 18 18 19 19 21 22 21 22 21 21 19 19 18 18 18 16
40 38 35 33 33 32 28 26 25 24 23 22 22 21 21 20 19 18 18 18 18 18 18 19 18 18 17 18 16 16 18 19 21 21 22 21 21 19 18 17 17 17 16
42 38 35 34 34 32 29 27 25 25 25 24 23 22 21 20 19 18 17 17 17 17 17 17 16 15 15 15 14 14 16 17 19 20 21 21 21 20 18 17 16 15 15
44 40 36 35 34 32 30 27 26 26 25 25 23 22 21 20 19 18 18 17 16 16 16 15 14 13 13 14 14 14 14 14 15 17 19 20 20 19 19 17 15 15 14
45 42 38 35 34 32 29 28 27 26 25 25 24 22 21 20 19 19 18 18 17 16 14 13 12 11 11 11 12 13 13 13 14 15 17 17 18 18 18 17 17 15 14
45 43 40 37 34 32 28 27 26 25 25 24 23 22 21 20 20 19 18 18 17 17 15 13 12 10 10 9 9 11 11 11 10 12 14 15 15 16 17 18 17 15 14
46 43 40 39 37 34 30 27 26 24 24 24 23 23 22 21 21 20 19 18 17 16 15 13 12 10 9 8 8 8 9 10 10 10 12 13 13 14 15 16 16 16 14
46 45 43 42 40 37 33 30 26 24 24 24 23 23 23 23 22 21 20 19 18 16 15 13 11 10 9 8 8 7 6 7 8 9 10 11 11 12 13 14 14 13 13
51 50 46 44 42 40 37 34 31 28 27 26 25 25 24 23 22 21 20 19 19 17 16 14 11 10 9 9 8 7 7 6 7 8 9 9 10 11 13 13 13 13 13
56 52 51 48 45 43 41 38 35 33 30 28 26 25 24 24 23 22 21 21 20 19 17 15 14 11 10 9 9 9 7 6 6 7 8 9 11 12 13 13 13 13 12
55 54 53 50 49 47 43 41 38 36 34 31 29 27 26 25 24 22 21 20 19 18 17 15 14 12 11 10 9 8 6 6 7 7 8 10 11 11 12 12 12 11 12
51 55 55 53 51 49 46 44 41 39 36 34 31 29 27 26 24 23 22 20 19 18 17 16 14 14 12 12 10 7 6 7 7 8 9 10 10 10 9 10 9 10 9
49 55 56 55 53 51 49 46 43 40 38 35 33 31 29 26 24 23 22 21 20 19 17 16 15 16 13 12 10 8 8 9 8 7 8 8 9 9 7 5 6 5 4
51 52 57 55 54 53 50 48 45 43 40 38 35 33 30 28 26 24 23 22 20 19 19 18 17 17 14 13 14 12 11 10 9 9 8 9 9 7 3 2 2 2 4
48 53 54 55 54 53 52 50 47 46 43 40 37 35 32 30 28 26 25 23 22 21 21 20 19 20 17 17 14 11 11 9 8 6 5 5 5 5 4 5 3 2 2
47 52 53 54 53 53 52 50 49 48 46 43 40 36 35 33 31 29 27 25 24 23 22 22 22 22 19 18 15 12 11 10 8 8 8 8 9 7 7 7 7 8 7
46 47 48 50 51 52 52 52 51 50 48 46 43 39 37 35 34 31 29 27 26 26 25 26 25 23 22 19 17 14 13 12 11 11 13 11 11 11 10 12 10 11 9
44 46 47 49 51 51 54 55 53 54 51 48 45 42 40 38 37 35 32 29 29 28 27 25 26 27 25 22 19 17 16 15 14 15 16 14 13 13 12 13 13 13 11
42 46 48 49 50 51 52 53 52 51 49 47 45 44 43 42 40 38 35 34 32 30 29 27 28 30 28 26 23 19 12 14 15 15 16 15 16 15 13 13 14 14 11
41 47 50 49 51 51 50 49 47 45 44 46 48 48 48 45 43 42 39 36 35 33 32 31 31 32 31 29 27 18 10 11 17 13 16 17 17 17 15 14 14 16 14
41 42 47 49 50 51 49 50 50 50 50 50 50 50 49 47 46 45 42 40 38 36 36 34 33 34 33 32 30 32 21 11 13 9 15 16 17 17 16 16 17 17 16
37 41 46 50 49 50 51 51 51 50 47 44 48 49 49 48 48 47 46 44 43 41 39 37 37 38 37 36 33 34 36 26 18 13 11 16 16 17 18 19 17 17 16
37 39 45 49 52 51 51 52 53 51 49 48 47 46 47 48 49 51 50 49 47 45 44 41 39 40 40 39 37 36 37 36 30 22 15 16 19 19 21 20 21 20 18
Wind_Direction
179 174 168 166 168 171 170 167 160 157 155 160 163 160 155 151 146 140 137 134 135 132 128 121 118 113 106 99 93 87 83 82 83 82 83 80 80 84 86 88 88 91 91
176 174 170 168 170 172 174 172 164 161 160 162 163 161 160 154 147 142 139 137 137 134 130 125 120 115 108 96 91 89 83 80 80 82 84 82 80 84 88 88 85 86 88
178 172 171 170 172 174 176 173 168 165 165 162 161 163 165 157 148 143 139 136 136 135 131 125 120 114 106 101 94 90 83 79 79 78 79 79 80 80 84 87 84 86 88
178 172 173 171 174 175 175 172 169 166 163 159 161 164 159 153 146 144 140 139 139 136 132 128 122 112 107 105 97 94 87 80 80 79 80 83 79 77 77 80 84 86 85
178 173 174 172 174 175 175 172 168 163 161 160 161 160 154 151 147 144 142 142 142 139 136 129 123 118 115 108 102 101 92 85 79 77 78 78 76 74 74 76 79 82 83
178 175 175 171 173 176 174 171 167 163 162 161 161 157 154 150 148 147 145 146 144 141 139 134 129 125 122 114 108 107 101 90 81 75 75 77 77 73 72 72 74 77 79
178 175 175 172 174 177 175 171 169 167 163 162 161 159 156 153 151 151 149 146 145 143 142 141 138 134 125 118 108 111 106 93 83 78 73 73 76 76 73 74 75 76 76
179 176 175 174 175 178 176 173 172 169 166 164 163 161 159 156 155 155 153 149 148 145 146 147 145 144 139 126 110 107 106 95 83 78 72 70 74 77 75 74 73 74 75
181 178 175 175 178 178 179 178 175 172 169 168 166 164 163 159 159 158 157 154 153 151 154 159 156 154 148 140 121 107 102 98 81 84 75 72 76 78 77 74 74 74 73
182 181 179 178 179 179 181 183 179 177 173 172 171 169 167 164 163 162 161 159 157 158 159 166 165 162 155 155 142 120 103 97 88 93 82 76 83 83 81 77 74 73 73
184 185 183 182 182 181 184 183 184 182 180 177 176 175 172 170 167 166 164 162 163 164 166 171 171 164 161 160 155 146 125 106 100 99 87 81 89 89 85 80 77 75 74
188 188 188 187 185 185 186 185 187 186 186 185 182 180 179 175 171 168 167 167 167 169 171 171 177 172 170 164 157 148 137 115 108 108 92 86 94 94 89 87 83 77 73
190 190 190 191 189 189 190 189 190 191 190 190 189 187 183 179 176 174 173 173 173 174 175 174 176 180 176 169 156 149 146 145 136 121 99 91 96 97 95 92 87 83 78
193 194 194 194 193 193 193 194 194 194 194 194 193 192 189 185 182 181 180 179 178 178 176 175 176 178 175 172 163 156 159 152 149 144 118 102 100 99 96 90 90 78 67
200 197 198 198 198 196 196 198 198 198 199 199 198 196 195 193 188 187 185 185 183 182 180 178 177 175 170 169 172 169 162 165 147 144 133 113 104 97 98 99 95 79 69
203 203 201 202 201 201 200 202 202 203 203 203 204 202 199 198 196 193 191 189 189 186 185 182 182 181 181 180 178 169 138 139 140 141 141 127 111 97 87 89 78 62 63
211 207 207 206 204 205 204 205 206 208 208 208 208 207 205 201 200 199 197 194 194 192 190 189 187 183 182 175 162 154 145 131 117 109 126 130 128 129 131 174 340 50 10
216 213 211 210 208 209 208 208 209 212 213 213 213 210 209 207 204 202 200 199 198 198 197 195 194 189 180 173 175 175 165 158 159 160 158 170 167 204 226 229 230 227 286
219 217 215 215 214 212 211 212 212 216 217 218 218 215 212 212 209 207 204 202 201 204 204 202 199 195 191 183 183 189 191 192 192 188 200 208 223 233 233 239 247 240 243
223 222 220 219 219 215 214 215 215 219 221 221 221 219 216 215 214 211 209 206 205 207 209 209 204 201 197 190 192 201 204 207 211 209 222 227 228 234 241 245 236 239 246
226 224 223 221 220 218 216 217 218 221 222 223 223 221 220 219 217 215 213 210 209 210 212 212 207 203 200 199 202 211 209 211 221 224 224 230 236 242 242 240 241 234 240
229 226 224 224 223 222 221 222 223 223 224 225 224 221 223 221 220 219 216 215 214 213 211 211 208 204 203 203 205 207 210 217 222 217 226 231 235 236 235 225 223 230 232
230 228 226 224 224 224 224 223 221 223 224 223 224 222 222 222 222 222 221 220 220 218 218 216 212 209 208 209 212 207 206 217 209 212 215 222 225 223 221 219 221 218 235
237 235 232 227 224 225 224 224 223 223 222 223 223 222 223 223 224 224 223 224 225 224 223 223 221 218 215 217 216 216 215 216 192 195 210 213 215 214 216 218 213 213 223
243 240 235 231 226 227 225 226 228 228 229 231 228 228 228 226 226 228 226 225 227 227 228 227 226 222 222 222 221 220 220 225 225 218 202 205 204 202 208 206 213 221 215
245 244 238 232 229 227 227 226 229 230 230 228 231 231 232 232 229 230 229 229 230 229 230 230 230 228 226 225 225 229 229 224 224 221 217 201 206 203 204 208 214 216 227